This is the latest recevied weather packets stored in our database for station/object IU0KRR-10. If no packets are shown the sender has not sent any weather packets the latest 10 day(s).
| Time | Temp. | Humidity | Pressure | Rain* | Wind** | Luminosity | Snow |
|---|---|---|---|---|---|---|---|
| 1777638452 | 20.56° C | 22% | 877.4 hPa | - | - | - | - |
| 1777637552 | 20° C | 23% | 877.3 hPa | - | - | - | - |
| 1777636651 | 20° C | 22% | 877.5 hPa | - | - | - | - |
| 1777635751 | 19.44° C | 23% | 877.5 hPa | - | - | - | - |
| 1777634851 | 20° C | 23% | 877.5 hPa | - | - | - | - |
| 1777633951 | 20° C | 22% | 877.6 hPa | - | - | - | - |
| 1777633050 | 19.44° C | 25% | 877.7 hPa | - | - | - | - |
| 1777632150 | 19.44° C | 24% | 877.5 hPa | - | - | - | - |
| 1777631249 | 19.44° C | 25% | 877.6 hPa | - | - | - | - |
| 1777630349 | 20° C | 25% | 877.4 hPa | - | - | - | - |
| 1777629448 | 20° C | 25% | 877.5 hPa | - | - | - | - |
| 1777628548 | 20.56° C | 25% | 877.5 hPa | - | - | - | - |
| 1777627758 | 20.56° C | 24% | 877.6 hPa | - | - | - | - |
| 1777627648 | 20.56° C | 24% | 877.6 hPa | - | - | - | - |
| 1777626748 | 19.44° C | 25% | 877.5 hPa | - | - | - | - |
| 1777625848 | 19.44° C | 26% | 877.5 hPa | - | - | - | - |
| 1777624947 | 19.44° C | 26% | 877.4 hPa | - | - | - | - |
| 1777624047 | 18.89° C | 26% | 877.4 hPa | - | - | - | - |
| 1777623183 | 18.33° C | 27% | 877.3 hPa | - | - | - | - |
| 1777623147 | 18.33° C | 27% | 877.3 hPa | - | - | - | - |
| 1777622246 | 18.33° C | 27% | 877.2 hPa | - | - | - | - |
| 1777621346 | 18.89° C | 27% | 877.2 hPa | - | - | - | - |
| 1777620446 | 18.33° C | 28% | 876.8 hPa | - | - | - | - |
| 1777619545 | 17.22° C | 30% | 876.8 hPa | - | - | - | - |
| 1777618645 | 17.22° C | 30% | 876.7 hPa | - | - | - | - |
* Rain since midnight (hover to see other rain measurements)
** Current wind speed in m/s (hover to see current wind gust speed)